Location: Hope
(40.9110°N, 74.9680°W)
Time: 17:44:24
(UTC-05:00)

N. Korean satellite - Pass Details

Date: 28 January 2019
Orbit: 457 x 510 km, 97.2° (Epoch: 17 February)

Event Time Altitude Azimuth Distance (km) Brightness Sun altitude
Rises 06:00:10 0° 16° (NNE) 2,596 10.3 -14.1°
Reaches altitude 10° 06:02:18 10° 20° (NNE) 1,700 9.4 -13.7°
Maximum altitude 06:05:54 57° 100° (E) 582 7.3 -13.1°
Drops below altitude 10° 06:09:25 10° 180° (S) 1,655 9.4 -12.4°
Sets 06:11:28 0° 184° (S) 2,520 10.3 -12.0°
